Weather History for Winnemucca, NV

Change the Weather History Date:

Friday, December 7, 2012

  Actual Average Record
Temperature  
Mean Temperature 35 °F 30 °F  
Max Temperature 50 °F 42 °F 63 °F (1973)
Min Temperature 20 °F 18 °F -6 °F (1956)
Degree Days  
Heating Degree Days 30 35  
Month to date heating degree days 162 239  
Since 1 July heating degree days 1434 1807  
Cooling Degree Days 0 0  
Month to date cooling degree days 0 0  
Year to date cooling degree days 681 541  
Moisture  
Dew Point 25 °F    
Average Humidity 65    
Maximum Humidity 96    
Minimum Humidity 34    
Precipitation  
Precipitation 0.00 in 0.03 in 0.58 in (1907)
Month to date precipitation 0.68 0.21  
Year to date precipitation 4.81 7.56  
Snow  
Snow 0.00 in 0.20 in 6.60 in (2013)
Month to date snowfall 0.0 1.1  
Since 1 July snowfall 1.3 4.6  
Snow Depth 0.00 in    
Sea Level Pressure  
Sea Level Pressure 30.13 in    
Wind  
Wind Speed 4 mph (South)    
Max Wind Speed 15 mph    
Max Gust Speed 18 mph    
Visibility 10 miles    
Events      
T = Trace of Precipitation, MM = Missing Value Source: NWS Daily Summary

Daily Weather History Graph

Daily Weather History Graph

Search for Another Location

Airport:

Trip Planner

Search our weather history database for the weather conditions in past years. The results will help you decide how hot, cold, wet, or windy it might be!

Date:

Astronomy

Dec. 07, 2012 Rise Set
Actual Time 7:02 AM PST 4:23 PM PST
Civil Twilight 6:31 AM PST 4:53 PM PST
Nautical Twilight 5:57 AM PST 5:28 PM PST
Astronomical Twilight 5:24 AM PST 6:01 PM PST
Moon 12:24 AM PST (12/7) 12:24 PM PST (12/7)
Length of Visible Light 10h 21m
Length of Day
9h 20m
Last Quarter, 37% of the Moon is Illuminated
Dec 7
Last Quarter
Dec 13
New
Dec 19
First Quarter
Dec 28
Full
Jan 4
Last Quarter

Hourly Weather History & Observations

Time (PST) Temp. Windchill Dew Point Humidity Pressure Visibility Wind Dir Wind Speed Gust Speed Precip Events Conditions
12:56 AM 27.0 °F 23.0 °F 25.0 °F 92% 30.15 in 10.0 mi SSE 3.5 mph - N/A   Clear
1:56 AM 26.1 °F - 24.1 °F 92% 30.17 in 10.0 mi Calm Calm - N/A   Clear
2:56 AM 26.1 °F 20.5 °F 25.0 °F 96% 30.17 in 10.0 mi SSE 4.6 mph - N/A   Clear
3:56 AM 24.1 °F 18.2 °F 21.9 °F 91% 30.17 in 10.0 mi SSE 4.6 mph - N/A   Clear
4:56 AM 24.1 °F 17.0 °F 21.9 °F 91% 30.18 in 10.0 mi SSE 5.8 mph - N/A   Clear
5:56 AM 23.0 °F - 21.9 °F 96% 30.21 in 10.0 mi Calm Calm - N/A   Clear
6:56 AM 21.9 °F 17.2 °F 19.9 °F 92% 30.22 in 10.0 mi SSE 3.5 mph - N/A   Clear
7:56 AM 24.1 °F - 21.9 °F 91% 30.21 in 10.0 mi Calm Calm - N/A   Clear
8:56 AM 34.0 °F - 28.9 °F 82% 30.20 in 10.0 mi Calm Calm - N/A   Clear
9:56 AM 37.0 °F - 30.9 °F 79% 30.19 in 10.0 mi Calm Calm - N/A   Clear
10:56 AM 42.1 °F - 33.1 °F 70% 30.16 in 10.0 mi Calm Calm - N/A   Clear
11:56 AM 46.0 °F 41.4 °F 30.0 °F 54% 30.12 in 10.0 mi South 9.2 mph - N/A   Clear
12:56 PM 48.0 °F - 26.1 °F 42% 30.09 in 10.0 mi Variable 3.5 mph - N/A   Clear
1:56 PM 48.0 °F - 21.0 °F 34% 30.08 in 10.0 mi West 11.5 mph - N/A   Clear
2:56 PM 48.0 °F - 21.9 °F 36% 30.07 in 10.0 mi SW 10.4 mph - N/A   Clear
3:56 PM 44.1 °F 41.5 °F 27.0 °F 51% 30.07 in 10.0 mi SSE 4.6 mph - N/A   Clear
4:56 PM 42.1 °F 39.2 °F 26.1 °F 53% 30.08 in 10.0 mi SSW 4.6 mph - N/A   Partly Cloudy
5:56 PM 41.0 °F 36.4 °F 28.9 °F 62% 30.08 in 10.0 mi SSE 6.9 mph - N/A   Clear
6:56 PM 41.0 °F 35.2 °F 26.1 °F 55% 30.07 in 10.0 mi South 9.2 mph - N/A   Overcast
7:56 PM 39.0 °F 34.8 °F 26.1 °F 60% 30.08 in 10.0 mi WSW 5.8 mph - N/A   Mostly Cloudy
8:56 PM 35.1 °F - 25.0 °F 67% 30.07 in 10.0 mi Calm Calm - N/A   Clear
9:56 PM 30.0 °F - 25.0 °F 82% 30.08 in 10.0 mi Calm Calm - N/A   Partly Cloudy
10:56 PM 28.9 °F 21.9 °F 24.1 °F 82% 30.07 in 10.0 mi SE 6.9 mph - N/A   Clear
11:56 PM 28.0 °F 22.8 °F 23.0 °F 81% 30.07 in 10.0 mi NE 4.6 mph - N/A   Clear